Back to catalog

CSO-3

AliveMilitarySSO
NORAD 63156·PAYLOAD·🇫🇷 France

Launched Mar 6, 2025 from Guiana Space Centre

Loading…

Next Passes (next 24 hours)

TLE

AgingSource: Mike McCants

Epoch: Sep 5, 2026, 02:02 UTC

1 63156U 25044A   26248.08527496 0.00000000  00000-0  00000-0 0    02
2 63156  98.6196 186.7132 0003136  25.8918 334.1080 14.26737192    07

Track CSO-3 in real time with AllMySat

Download on the App Store